| time (UTC) | temp F | wind direction | speed MPH | gust MPH | rain 1hr in | rain 24hr in | rain mn in | humidity % | barometer mb |
| 20260507095045 | 46 | 99 | 0.0 | 0.0 | 0.00 | 0.41 | 0.05 | 93 | 1009.4 |
| 20260507093545 | 46 | 99 | 0.0 | 0.0 | 0.00 | 0.41 | 0.05 | 93 | 1009.2 |
| 20260507092038 | 46 | 99 | 0.0 | 0.0 | 0.00 | 0.41 | 0.05 | 93 | 1009.2 |
| 20260507090540 | 46 | 99 | 0.0 | 0.0 | 0.00 | 0.41 | 0.05 | 92 | 1009.1 |
| 20260507085035 | 47 | 99 | 0.0 | 0.0 | 0.00 | 0.41 | 0.05 | 92 | 1009.0 |
| 20260507083532 | 47 | 99 | 0.0 | 0.0 | 0.00 | 0.41 | 0.05 | 92 | 1009.0 |
| 20260507082029 | 48 | 100 | 0.0 | 0.0 | 0.01 | 0.41 | 0.05 | 92 | 1009.4 |
| 20260507080529 | 48 | 96 | 0.0 | 0.0 | 0.01 | 0.41 | 0.05 | 92 | 1009.6 |
| 20260507075059 | 48 | 96 | 0.0 | 0.0 | 0.02 | 0.41 | 0.05 | 92 | 1009.6 |
| 20260507073609 | 48 | 96 | 0.0 | 0.0 | 0.02 | 0.41 | 0.05 | 92 | 1009.7 |
| 20260507072105 | 48 | 96 | 0.0 | 0.0 | 0.01 | 0.40 | 0.04 | 92 | 1009.7 |
| 20260507070545 | 48 | 96 | 0.0 | 0.0 | 0.02 | 0.40 | 0.04 | 92 | 1009.9 |
| 20260507065053 | 48 | 96 | 0.0 | 0.0 | 0.01 | 0.39 | 0.03 | 91 | 1010.0 |
| 20260507063553 | 48 | 96 | 0.0 | 0.0 | 0.02 | 0.39 | 0.03 | 90 | 1009.7 |
| 20260507062050 | 49 | 96 | 0.0 | 0.0 | 0.03 | 0.39 | 0.03 | 90 | 1009.8 |
| 20260507060554 | 49 | 96 | 0.0 | 0.0 | 0.02 | 0.38 | 0.02 | 89 | 1009.5 |
| 20260507055043 | 50 | 96 | 0.0 | 0.0 | 0.02 | 0.38 | 0.02 | 87 | 1009.9 |
| 20260507053534 | 50 | 103 | 0.0 | 2.0 | 0.01 | 0.37 | 0.01 | 84 | 1009.5 |
| 20260507052034 | 51 | 218 | 0.0 | 3.0 | 0.00 | 0.36 | 0.00 | 82 | 1009.5 |
| 20260507050532 | 51 | 187 | 0.0 | 2.0 | 0.00 | 0.36 | 0.00 | 82 | 1009.3 |
| 20260507045106 | 51 | 113 | 0.0 | 0.0 | 0.00 | 0.36 | 0.00 | 82 | 1009.0 |
| 20260507043546 | 51 | 113 | 1.0 | 3.0 | 0.00 | 0.36 | 0.00 | 82 | 1009.0 |
| 20260507042039 | 51 | 188 | 0.0 | 2.0 | 0.00 | 0.36 | 0.00 | 84 | 1009.1 |
| 20260507040608 | 51 | 146 | 0.0 | 0.0 | 0.00 | 0.36 | 0.00 | 86 | 1009.6 |
| 20260507035053 | 51 | 146 | 0.0 | 0.0 | 0.00 | 0.36 | 0.36 | 86 | 1009.4 |
| 20260507033552 | 52 | 146 | 0.0 | 0.0 | 0.00 | 0.36 | 0.36 | 86 | 1009.1 |
| 20260507032041 | 52 | 146 | 0.0 | 0.0 | 0.00 | 0.36 | 0.36 | 86 | 1009.1 |
| 20260507030542 | 52 | 146 | 0.0 | 0.0 | 0.00 | 0.36 | 0.36 | 85 | 1009.1 |
| 20260507025039 | 52 | 146 | 0.0 | 2.0 | 0.00 | 0.36 | 0.36 | 84 | 1009.1 |
| 20260507023538 | 53 | 134 | 0.0 | 2.0 | 0.00 | 0.36 | 0.36 | 84 | 1009.2 |
| 20260507022035 | 53 | 91 | 0.0 | 2.0 | 0.00 | 0.36 | 0.36 | 85 | 1009.6 |
| 20260507020540 | 53 | 86 | 0.0 | 4.0 | 0.00 | 0.36 | 0.36 | 86 | 1009.6 |
| 20260507015035 | 54 | 22 | 0.0 | 0.0 | 0.00 | 0.36 | 0.36 | 86 | 1009.5 |
| 20260507013533 | 54 | 67 | 0.0 | 3.0 | 0.00 | 0.36 | 0.36 | 84 | 1009.5 |
| 20260507012033 | 54 | 126 | 1.0 | 3.0 | 0.00 | 0.36 | 0.36 | 84 | 1009.3 |
| 20260507010541 | 55 | 93 | 1.0 | 3.0 | 0.00 | 0.36 | 0.36 | 84 | 1008.9 |
| 20260507005030 | 56 | 342 | 0.0 | 3.0 | 0.00 | 0.36 | 0.36 | 86 | 1008.6 |
| 20260507003605 | 56 | 197 | 0.0 | 3.0 | 0.00 | 0.36 | 0.36 | 87 | 1008.4 |
| 20260507002101 | 57 | 141 | 0.0 | 3.0 | 0.00 | 0.36 | 0.36 | 87 | 1007.9 |
| 20260507000537 | 58 | 119 | 2.0 | 4.0 | 0.00 | 0.36 | 0.36 | 86 | 1007.6 |
| 20260506235048 | 61 | 141 | 2.0 | 4.0 | 0.00 | 0.36 | 0.36 | 91 | 1007.2 |
| 20260506233607 | 62 | 272 | 0.0 | 2.0 | 0.00 | 0.36 | 0.36 | 94 | 1006.3 |
| 20260506232048 | 62 | 272 | 0.0 | 1.0 | 0.00 | 0.36 | 0.36 | 94 | 1006.2 |
| 20260506230546 | 63 | 272 | 0.0 | 2.0 | 0.00 | 0.36 | 0.36 | 94 | 1006.2 |
| 20260506225100 | 63 | 297 | 0.0 | 1.0 | 0.00 | 0.36 | 0.36 | 94 | 1006.1 |
| 20260506223535 | 63 | 337 | 1.0 | 5.0 | 0.00 | 0.36 | 0.36 | 95 | 1006.2 |
| 20260506222036 | 63 | 266 | 1.0 | 6.0 | 0.00 | 0.36 | 0.36 | 95 | 1006.0 |
| 20260506220535 | 63 | 62 | 1.0 | 2.0 | 0.00 | 0.36 | 0.36 | 95 | 1005.9 |
| 20260506215050 | 63 | 180 | 0.0 | 2.0 | 0.00 | 0.36 | 0.36 | 95 | 1005.8 |
| 20260506213605 | 62 | 300 | 0.0 | 0.0 | 0.00 | 0.36 | 0.36 | 95 | 1005.7 |
| 20260506212044 | 62 | 268 | 0.0 | 0.0 | 0.00 | 0.36 | 0.36 | 95 | 1005.5 |
| 20260506210529 | 62 | 263 | 2.0 | 3.0 | 0.00 | 0.36 | 0.36 | 95 | 1005.5 |
| 20260506205038 | 62 | 265 | 1.0 | 2.0 | 0.00 | 0.36 | 0.36 | 95 | 1005.5 |
| 20260506203534 | 61 | 215 | 2.0 | 4.0 | 0.00 | 0.36 | 0.36 | 94 | 1005.4 |
| 20260506202029 | 61 | 284 | 0.0 | 2.0 | 0.00 | 0.36 | 0.36 | 94 | 1005.5 |
| 20260506200530 | 61 | 251 | 1.0 | 4.0 | 0.00 | 0.36 | 0.36 | 94 | 1005.5 |
| 20260506195041 | 61 | 141 | 2.0 | 5.0 | 0.01 | 0.36 | 0.36 | 94 | 1005.6 |
| 20260506193541 | 61 | 315 | 1.0 | 4.0 | 0.01 | 0.36 | 0.36 | 94 | 1005.7 |
| 20260506192039 | 61 | 290 | 1.0 | 6.0 | 0.03 | 0.36 | 0.36 | 94 | 1005.7 |
| 20260506190537 | 61 | 240 | 1.0 | 7.0 | 0.05 | 0.36 | 0.36 | 94 | 1005.9 |
| 20260506185053 | 62 | 289 | 2.0 | 5.0 | 0.05 | 0.35 | 0.35 | 94 | 1006.1 |
| 20260506183550 | 62 | 224 | 2.0 | 5.0 | 0.07 | 0.35 | 0.35 | 94 | 1006.2 |
| 20260506182042 | 61 | 275 | 2.0 | 4.0 | 0.08 | 0.33 | 0.33 | 94 | 1006.3 |
| 20260506180541 | 61 | 237 | 2.0 | 5.0 | 0.08 | 0.31 | 0.31 | 94 | 1006.4 |
| 20260506175026 | 61 | 255 | 2.0 | 5.0 | 0.09 | 0.30 | 0.30 | 94 | 1006.4 |
| 20260506173546 | 61 | 259 | 1.0 | 5.0 | 0.08 | 0.28 | 0.28 | 94 | 1006.5 |
| 20260506172044 | 61 | 232 | 3.0 | 7.0 | 0.06 | 0.25 | 0.25 | 93 | 1006.6 |
| 20260506170528 | 61 | 277 | 2.0 | 7.0 | 0.04 | 0.23 | 0.23 | 93 | 1006.4 |
| 20260506165043 | 61 | 302 | 2.0 | 6.0 | 0.04 | 0.21 | 0.21 | 92 | 1006.7 |
| 20260506163542 | 61 | 301 | 4.0 | 11.0 | 0.06 | 0.20 | 0.20 | 92 | 1006.6 |
| 20260506162025 | 61 | 254 | 3.0 | 10.0 | 0.09 | 0.19 | 0.19 | 92 | 1006.7 |
| 20260506160553 | 61 | 317 | 4.0 | 10.0 | 0.10 | 0.19 | 0.19 | 92 | 1006.8 |
| 20260506155045 | 61 | 330 | 3.0 | 10.0 | 0.09 | 0.17 | 0.17 | 91 | 1006.9 |
| 20260506153542 | 61 | 348 | 3.0 | 7.0 | 0.08 | 0.14 | 0.14 | 91 | 1007.6 |
| 20260506152052 | 62 | 296 | 2.0 | 7.0 | 0.05 | 0.10 | 0.10 | 91 | 1007.5 |
| 20260506150553 | 62 | 237 | 3.0 | 8.0 | 0.06 | 0.09 | 0.09 | 91 | 1007.1 |
| 20260506145105 | 62 | 258 | 2.0 | 5.0 | 0.05 | 0.08 | 0.08 | 90 | 1007.3 |
| 20260506143608 | 62 | 248 | 1.0 | 3.0 | 0.04 | 0.06 | 0.06 | 89 | 1007.7 |
| 20260506142043 | 62 | 301 | 0.0 | 1.0 | 0.05 | 0.05 | 0.05 | 89 | 1007.8 |
| 20260506140530 | 62 | 272 | 0.0 | 3.0 | 0.03 | 0.03 | 0.03 | 88 | 1007.7 |
| 20260506135033 | 62 | 296 | 2.0 | 6.0 | 0.03 | 0.03 | 0.03 | 88 | 1007.7 |
| 20260506133532 | 63 | 269 | 2.0 | 7.0 | 0.02 | 0.02 | 0.02 | 87 | 1007.8 |
| 20260506132027 | 64 | 246 | 3.0 | 7.0 | 0.00 | 0.00 | 0.00 | 84 | 1007.8 |
| 20260506130538 | 64 | 255 | 1.0 | 4.0 | 0.00 | 0.00 | 0.00 | 83 | 1008.0 |
| 20260506125030 | 66 | 292 | 1.0 | 9.0 | 0.00 | 0.00 | 0.00 | 79 | 1007.9 |
| 20260506123558 | 66 | 232 | 2.0 | 9.0 | 0.00 | 0.00 | 0.00 | 77 | 1007.6 |
| 20260506122047 | 65 | 201 | 4.0 | 7.0 | 0.00 | 0.00 | 0.00 | 77 | 1007.3 |
| 20260506120551 | 65 | 320 | 3.0 | 7.0 | 0.00 | 0.00 | 0.00 | 77 | 1007.4 |
| 20260506115108 | 65 | 286 | 2.0 | 7.0 | 0.00 | 0.00 | 0.00 | 78 | 1007.5 |
| 20260506113547 | 64 | 262 | 4.0 | 7.0 | 0.00 | 0.00 | 0.00 | 78 | 1007.6 |
| 20260506112041 | 64 | 246 | 1.0 | 5.0 | 0.00 | 0.00 | 0.00 | 78 | 1007.6 |
| 20260506110540 | 64 | 282 | 1.0 | 5.0 | 0.00 | 0.00 | 0.00 | 78 | 1007.5 |
| 20260506105049 | 64 | 276 | 2.0 | 6.0 | 0.00 | 0.00 | 0.00 | 77 | 1007.0 |
| 20260506103555 | 64 | 255 | 2.0 | 4.0 | 0.00 | 0.00 | 0.00 | 77 | 1007.0 |
| 20260506102034 | 64 | 303 | 2.0 | 7.0 | 0.00 | 0.00 | 0.00 | 76 | 1006.9 |
| 20260506100535 | 64 | 255 | 2.0 | 5.0 | 0.00 | 0.00 | 0.00 | 75 | 1006.8 |